Hourly Data Report for October 02, 2013

All times are specified in Local Standard Time (LST). Add 1 hour to adjust for Daylight Saving Time where and when it is observed.

KUGAARUK CLIMATE
NUNAVUT

68°32'15.060" N
89°47'47.020" W
15.80 m
2303094
71407
NBB

Download Data

Hourly Data (October 2013)
Hourly Data Report for October 2, 2013
Temp Definition
°C
Dew Point Temp Definition
°C
Rel Hum Definition
%
Wind Dir Definition
10's deg

Wind Spd Definition
km/h
Visibility Definition
km
Stn Press Definition
kPa
Hmdx Definition


Wind Chill Definition


Weather Definition


TIME
00:00 -2.2 -3.5 91 2 15   101.27   -7 LegendNANA
01:00 -2.1 -4.3 85 1 26   101.30   -9 LegendNANA
02:00 -2.1 -4.5 84 1 26   101.37   -9 LegendNANA
03:00 -2.3 -5.0 82 2 24   101.38   -9 LegendNANA
04:00 -2.3 -4.9 82 1 20   101.41   -8 LegendNANA
05:00 -2.3 -5.1 81 36 26   101.44   -9 LegendNANA
06:00 -2.3 -5.3 80 1 30   101.44   -9 LegendNANA
07:00 -2.2 -5.3 79 36 24   101.50   -9 LegendNANA
08:00 -2.8 -6.0 79 1 33   101.52   -10 LegendNANA
09:00 -3.1 -5.8 82 3 30   101.55   -11 LegendNANA
10:00 -2.7 -6.5 75 2 32   101.56   -10 LegendNANA
11:00 -2.0 -6.8 70 2 32   101.59   -9 LegendNANA
12:00 -2.3 -7.1 70 2 30   101.63   -9 LegendNANA
13:00 -2.5 -7.8 67 1 33   101.66   -10 LegendNANA
14:00 -2.8 -7.9 68 36 35   101.70   -11 LegendNANA
15:00 -3.2 -7.7 71 1 30   101.76   -11 LegendNANA
16:00 -3.5 -7.8 72 1 28   101.78   -11 LegendNANA
17:00 -3.8 -8.2 71 1 28   101.82   -11 LegendNANA
18:00 -3.8 -8.7 69 36 22   101.84   -10 LegendNANA
19:00 -3.7 -8.4 70 1 26   101.83   -11 LegendNANA
20:00 -4.2 -8.1 74 1 26   101.86   -11 LegendNANA
21:00 -4.2 -8.1 74 1 26   101.87   -11 LegendNANA
22:00 -4.5 -8.5 74 36 20   101.90   -11 LegendNANA
23:00 -4.5 -8.1 76 35 22   101.89   -11 LegendNANA

Notes on Data Quality.

Legend

  • E = Estimated
  • M = Missing
  • NA = Not Available
  • ‡ = Partner data that is not subject to review by the National Climate Archives
Date modified: